sat.trackr.live / text

‹ back to catalog

GEMS2-AMETHYST

NORAD 68505 · 2026-067CT

PAYLOAD ACTIVE UNKNOWN

§ Identity

Operator
Country
US
Launch date
2026-03-30
Launch site
AFWTR
Launch vehicle
Mass (kg)
RCS (m²)

External: N2YO · Heavens-Above · Gunter

§ Orbital elements

Epoch: 2026-05-25T03:29:09.725280Z

Period
96.58 min
Inclination
97.7590°
Eccentricity
0.0006950
Mean motion
14.90922619 rev/d
Perigee alt
590.2 km
Apogee alt
599.9 km
Semi-major
6,973.2 km
B*
3.7693e-4
RAAN
103.6781°
Arg perigee
112.8983°
Mean anomaly
247.2969°
Rev number
828

§ Raw data

GEMS2-AMETHYST1 68505U 26067CT  26145.14525145  .00003666  00000+0  37693-3 0  99912 68505  97.7590 103.6781 0006950 112.8983 247.2969 14.90922619  8281

JSON: /api/v1/satellites/68505 · /tle

For live sub-satellite position, see the globe view (requires WebGL).

§ Visibility from observer

Set your observer location to see the next 7 days of passes ≥ 10°. The values pass through the URL so the page stays shareable.

No JS? Fill the form by hand. The geolocation button needs JavaScript.